Home   Weather   Kaliningrad   Past weeks

Flag for Russia Past Weather in Kaliningrad, Russia — Yesterday and Last 2 Weeks

Now
48 °F

Overcast.


Feels Like: 41 °F
Forecast: 43 / 46 °F
Wind: 22 mph from West

Location: Kaliningrad/Khrabrovo Airport

Current Time: Dec 8, 2016 at 8:34:36 pm

Latest Report: Dec 8, 2016 at 8:00 pm


Visibility: N/A

Pressure: 29.83 "Hg

Humidity: 94%

Dew Point: 46 °F

Location of KaliningradLocation

Past Weather in Kaliningrad — Graph

°F

Kaliningrad Temperature Yesterday

Maximum temperature yesterday: 36 °F (at 12:30 pm)
Minimum temperature yesterday: 23 °F (at 12:00 am)
Average temperature yesterday: 31 °F

High & Low Weather Summary for the Past Weeks

 TemperatureHumidityPressure
High48 °F (Dec 8, 11:30 am)100% (Nov 23, 7:00 pm)30.54 "Hg (Nov 23, 7:00 pm)
Low21 °F (Dec 4, 7:00 am)52% (Nov 28, 4:30 pm)29.42 "Hg (Dec 2, 12:00 am)
Average37 °F89%30.00 "Hg
* Reported Nov 23 7:00 pm — Dec 8 7:00 pm, Kaliningrad, Weather by CustomWeather, © 2016

Note: Actual official high and low records may vary slightly from our data, if they occured in-between our weather recording intervals... More about our weather records

Advertising

Kaliningrad Weather History for the Previous 24 Hours

Scroll right to see more
 ConditionsComfort  
Time TempWeatherWind HumidityBarometerVisibility
7:00 pm
Thu, Dec 8
48 °FMostly cloudy.20 mph94%29.83 "Hg5 mi
6:30 pm48 °FMostly cloudy.26 mph94%29.80 "Hg5 mi
6:00 pm48 °FLow clouds.26 mph94%29.80 "Hg5 mi
5:30 pm48 °FLow clouds.24 mph94%29.80 "Hg5 mi
5:00 pm48 °FLow clouds.24 mph100%29.80 "Hg5 mi
4:30 pm48 °FLow clouds.24 mph100%29.80 "Hg5 mi
4:00 pm48 °FLow clouds.22 mph100%29.80 "Hg5 mi
3:00 pm48 °FLow clouds.24 mph100%29.83 "Hg5 mi
2:00 pm48 °FLow clouds.24 mph100%29.83 "Hg5 mi
1:30 pm48 °FLow clouds.24 mph100%29.83 "Hg4 mi
1:00 pm48 °FLow clouds.26 mph100%29.83 "Hg4 mi
12:30 pm48 °FLow clouds.24 mph100%29.83 "Hg4 mi
12:00 pm48 °FLow clouds.22 mph100%29.83 "Hg4 mi
11:30 am48 °FLow clouds.20 mph100%29.86 "Hg4 mi
11:00 am46 °FFog.17 mph100%29.86 "Hg2 mi
10:30 am46 °FFog.17 mph100%29.86 "Hg2 mi
10:00 am46 °FLight rain. Fog.20 mph100%29.86 "Hg2 mi
9:30 am46 °FFog.22 mph93%29.86 "Hg1 mi
9:00 am45 °FFog.22 mph100%29.86 "Hg3 mi
8:00 am45 °FLight rain. Fog.20 mph100%29.89 "Hg2 mi
7:30 am45 °FLight rain. Fog.20 mph100%29.89 "Hg2 mi
7:00 am45 °FFog.20 mph100%29.89 "Hg3 mi
6:00 am43 °FFog.20 mph100%29.92 "Hg3 mi
5:30 am43 °FFog.20 mph100%29.92 "Hg3 mi
5:00 am41 °FLight rain. Fog.17 mph100%29.92 "Hg2 mi
4:30 am41 °FLight rain. Fog.17 mph100%29.95 "Hg2 mi
4:00 am39 °FLight rain. Fog.20 mph100%29.95 "Hg2 mi
3:00 am37 °FLight rain. Fog.17 mph100%29.98 "Hg2 mi
2:00 am36 °FFog.20 mph100%29.98 "Hg2 mi
1:00 am34 °FLight rain. Fog.20 mph100%30.01 "Hg2 mi
12:00 am34 °FLight rain. Fog.15 mph93%30.07 "Hg2 mi
11:00 pm
Wed, Dec 7
34 °FLight rain. Fog.17 mph93%30.15 "Hg2 mi
10:30 pm34 °FLight rain. Fog.20 mph93%30.15 "Hg3 mi
10:00 pm32 °FLight rain. Ice fog.20 mph93%30.18 "Hg3 mi
9:30 pm34 °FOvercast.17 mph81%30.21 "Hg4 mi
9:00 pm32 °FIce fog.17 mph93%30.24 "Hg3 mi
8:30 pm32 °FIce fog.15 mph93%30.24 "Hg3 mi
8:00 pm32 °FIce fog.15 mph93%30.27 "Hg3 mi
Weather by CustomWeather, © 2016

See weather overviewHow to use our weather pages